GW4557 Weather Reports


Display with metric or nautical units.
time (UTC)temp
F
wind
direction
speed
MPH
gust
MPH
rain 1hr
in
rain 24hr
in
rain mn
in
humidity
%
barometer
mb
20260504173204 60 279 10.0 14.0 0.01 0.30 0.30 79 1011.8
20260504172703 60 294 8.0 14.0 0.01 0.30 0.30 78 1011.7
20260504172205 60 301 9.0 14.0 0.01 0.30 0.30 79 1011.7
20260504171704 60 293 7.0 13.0 0.01 0.30 0.30 79 1011.6
20260504171204 60 289 6.0 14.0 0.01 0.30 0.30 78 1011.7
20260504170704 60 294 10.0 14.0 0.00 0.29 0.29 79 1011.7
20260504170204 60 298 8.0 14.0 0.00 0.29 0.29 78 1011.5
20260504160204 61 324 9.0 15.0 0.00 0.29 0.29 74 1011.8
20260504150704 61 313 6.0 17.0 0.00 0.29 0.29 75 1011.9
20260504150204 61 322 11.0 17.0 0.00 0.29 0.29 75 1011.8
20260504141204 61 326 7.0 14.0 0.00 0.30 0.29 82 1012.1
20260504140704 60 337 8.0 14.0 0.00 0.30 0.29 81 1012.1
20260504130704 60 344 7.0 14.0 0.00 0.30 0.29 84 1012.2
20260504130204 60 330 9.0 15.0 0.00 0.30 0.29 84 1012.2
20260504120204 57 0 6.0 13.0 0.02 0.31 0.29 91 1012.2
20260504110204 55 352 9.0 13.0 0.06 0.31 0.28 92 1012.8
20260504100203 54 345 6.0 12.0 0.08 0.25 0.22 93 1012.9
20260504081704 54 340 3.0 6.0 0.04 0.10 0.07 92 1012.5
20260504081203 54 345 2.0 6.0 0.03 0.09 0.06 91 1012.5
20260504080704 55 345 3.0 7.0 0.02 0.09 0.06 91 1012.5
20260504080204 55 331 3.0 7.0 0.02 0.09 0.06 91 1012.4
20260504060204 54 8 6.0 9.0 0.00 0.06 0.03 90 1011.6
20260504050704 53 0 7.0 10.0 0.00 0.06 0.03 92 1011.4
20260504050204 53 0 6.0 10.0 0.00 0.06 0.03 92 1011.4
20260504045704 53 1 6.0 12.0 0.00 0.06 0.03 92 1011.4
20260504045204 53 356 6.0 12.0 0.00 0.06 0.03 92 1011.5
20260504044203 53 353 6.0 10.0 0.00 0.06 0.03 92 1011.5
20260504043703 53 353 7.0 9.0 0.00 0.06 0.03 92 1011.5
20260504043204 53 350 6.0 9.0 0.00 0.06 0.03 92 1011.5
20260504042704 53 343 5.0 10.0 0.00 0.06 0.03 92 1011.5
20260504042205 53 338 5.0 10.0 0.00 0.06 0.03 92 1011.5
20260504041704 53 333 6.0 10.0 0.00 0.06 0.03 92 1011.5
20260504041204 53 342 6.0 10.0 0.00 0.06 0.03 92 1011.5
20260504040704 53 345 5.0 9.0 0.00 0.06 0.03 92 1011.5
20260504035704 53 327 6.0 10.0 0.03 0.06 0.03 92 1011.6
20260504035204 53 325 7.0 10.0 0.03 0.06 0.03 92 1011.7
20260504034704 54 321 7.0 13.0 0.03 0.06 0.03 92 1011.7
20260504034204 54 326 8.0 13.0 0.03 0.06 0.03 92 1011.7
20260504033704 54 330 5.0 9.0 0.03 0.06 0.03 92 1011.6
20260504033204 54 342 6.0 8.0 0.03 0.06 0.03 92 1011.7
20260504032704 54 349 5.0 9.0 0.03 0.06 0.03 93 1011.7
20260504032204 53 353 5.0 9.0 0.03 0.06 0.03 93 1011.6
20260504031204 53 345 6.0 9.0 0.03 0.06 0.03 93 1011.7
20260503223704 54 325 5.0 8.0 0.00 0.03 0.03 92 1012.5
20260503223204 54 326 6.0 8.0 0.00 0.03 0.03 93 1012.5
20260503222704 55 328 5.0 8.0 0.00 0.03 0.03 93 1012.5
20260503222204 55 330 7.0 8.0 0.00 0.04 0.03 93 1012.5
20260503221704 54 324 6.0 8.0 0.00 0.04 0.03 93 1012.6
20260503220704 53 325 7.0 8.0 0.00 0.05 0.03 93 1012.6
20260503220204 52 319 6.0 7.0 0.00 0.05 0.03 93 1012.6
20260503215204 53 314 3.0 5.0 0.00 0.05 0.03 93 1012.6
20260503214704 53 302 1.0 1.0 0.00 0.05 0.03 93 1012.6
20260503214203 53 345 1.0 2.0 0.00 0.05 0.03 93 1012.5
20260503213704 53 290 1.0 2.0 0.00 0.05 0.03 92 1012.5
20260503213204 53 295 1.0 2.0 0.00 0.05 0.03 93 1012.5
20260503212704 53 311 0.0 3.0 0.00 0.05 0.03 92 1012.6
20260503212204 53 294 1.0 3.0 0.00 0.05 0.03 92 1012.6
20260503211704 53 291 2.0 3.0 0.00 0.05 0.03 92 1012.6
20260503211204 53 283 2.0 3.0 0.00 0.05 0.03 92 1012.7
20260503210704 53 303 1.0 2.0 0.00 0.05 0.03 92 1012.7
20260503210204 53 251 1.0 3.0 0.00 0.05 0.03 92 1012.7
20260503205704 53 284 2.0 3.0 0.00 0.05 0.03 91 1012.6
20260503205204 53 305 2.0 3.0 0.00 0.05 0.03 91 1012.5
20260503204704 53 319 1.0 2.0 0.00 0.05 0.03 91 1012.5
20260503204204 54 320 1.0 5.0 0.00 0.05 0.03 91 1012.6
20260503203704 54 320 1.0 6.0 0.00 0.05 0.03 90 1012.5
20260503203204 55 309 3.0 7.0 0.00 0.05 0.03 90 1012.5
20260503202704 56 311 5.0 8.0 0.00 0.05 0.03 90 1012.3
20260503201204 55 307 6.0 8.0 0.00 0.05 0.03 90 1012.1
20260503200704 55 306 5.0 7.0 0.00 0.05 0.03 90 1012.1
20260503200203 56 310 5.0 7.0 0.00 0.05 0.03 89 1012.0
20260503195703 56 297 5.0 7.0 0.00 0.05 0.03 89 1012.0
20260503195204 56 295 5.0 8.0 0.00 0.05 0.03 88 1011.9
20260503194204 58 298 6.0 9.0 0.00 0.05 0.03 86 1011.8
20260503193704 58 315 5.0 9.0 0.00 0.05 0.03 86 1011.7
20260503193204 58 308 7.0 9.0 0.00 0.05 0.03 86 1011.6
20260503192704 58 313 7.0 9.0 0.00 0.05 0.03 85 1011.5
20260503192204 58 310 7.0 9.0 0.00 0.05 0.03 86 1011.5
20260503191704 58 316 5.0 8.0 0.00 0.05 0.03 86 1011.5
20260503191204 58 298 7.0 9.0 0.00 0.05 0.03 85 1011.5
20260503190204 59 279 7.0 9.0 0.00 0.05 0.03 83 1011.3
20260503185705 59 277 7.0 8.0 0.00 0.05 0.03 82 1011.3
20260503185204 60 296 5.0 8.0 0.00 0.05 0.03 80 1011.2
20260503184704 60 302 5.0 10.0 0.00 0.05 0.03 79 1011.2
20260503184204 60 293 5.0 10.0 0.00 0.05 0.03 78 1011.3
20260503183204 62 310 6.0 10.0 0.00 0.05 0.03 76 1011.2
20260503182704 62 303 7.0 10.0 0.00 0.05 0.03 76 1011.1
20260503182204 62 307 7.0 12.0 0.00 0.05 0.03 74 1011.1
20260503181704 62 300 7.0 12.0 0.00 0.05 0.03 75 1011.0
20260503181204 62 303 9.0 12.0 0.00 0.05 0.03 75 1011.0
20260503180704 62 306 8.0 12.0 0.00 0.05 0.03 77 1011.0
20260503180204 62 281 7.0 12.0 0.00 0.05 0.03 77 1011.0
20260503175703 62 291 7.0 12.0 0.00 0.05 0.03 77 1011.0
20260503175204 63 315 9.0 12.0 0.00 0.05 0.03 76 1011.0
20260503174703 63 303 8.0 12.0 0.00 0.05 0.03 77 1011.0
20260503174203 63 306 8.0 13.0 0.00 0.05 0.03 76 1011.0